Location: ??
(35.1714°N, 128.2806°E)
Time: 15:22:21
(UTC+00:00)

S3M - Pass Details

Date: 29 October 2020
Orbit: 950 x 1003 km, 83.0° (Epoch: 30 November)

Event Time Altitude Azimuth Distance (km) Brightness Sun altitude
Rises 21:10:35 0° 353° (N) 3,699 6.8 -7.9°
Reaches altitude 10° 21:13:06 10° 353° (N) 2,754 6.2 -7.4°
Maximum altitude 21:19:27 88° 265° (W) 1,002 4.1 -6.1°
Drops below altitude 10° 21:25:49 10° 176° (S) 2,763 6.6 -4.9°
Sets 21:28:20 0° 176° (S) 3,711 7.3 -4.4°
